GSAT0203 (GALILEO 7)

Last updated on Fri Oct 11 2024 00:02:28 GMT+0000 (Coordinated Universal Time)

1 40544U 15017A 24283.88626966 -.00000078 00000+0 00000+0 0 9995 2 40544 56.9188 358.3531 0005102 246.9659 113.0350 1.70476198 58710
UTC large
Height (km)
Speed (km/s)
/
Latitude / Longitude
Inclination (degrees)
Orbital Period (minutes)
Azimuth
Elevation
Range (km)
Doppler Factor

Next 0 passes for location: London (51.5072 / 0.1276)

Sorry there are no passes over London.